EW1556 Weather Reports


time (UTC)temp
C
wind
direction
speed
KPH
gust
KPH
rain 1hr
cm
rain 24hr
cm
rain mn
cm
humidity
%
barometer
mb
20260506044506 17 289 11.3 17.7 0.00 0.00 0.00 63 1010.9
20260506043003 17 285 9.7 16.1 0.00 0.00 0.00 61 1010.7
20260506041608 18 278 9.7 14.5 0.00 0.00 0.00 59 1010.5
20260506040054 18 287 6.4 11.3 0.00 0.00 0.00 60 1010.2
20260506034553 18 280 6.4 11.3 0.00 0.00 0.00 59 1010.1
20260506033043 20 288 3.2 8.0 0.00 0.00 0.00 57 1009.8
20260506031543 20 297 4.8 8.0 0.00 0.00 0.00 50 1009.7
20260506030039 22 13 3.2 8.0 0.00 0.00 0.00 46 1009.3
20260506024536 23 21 4.8 9.7 0.00 0.00 0.00 43 1009.1
20260506023047 23 23 3.2 9.7 0.00 0.00 0.00 41 1009.0
20260506021533 25 25 4.8 11.3 0.00 0.00 0.00 39 1008.9
20260506020022 25 28 6.4 16.1 0.00 0.00 0.00 37 1008.9
20260506014515 25 36 11.3 19.3 0.00 0.00 0.00 33 1008.8
20260506013010 26 32 9.7 16.1 0.00 0.00 0.00 30 1008.7
20260506011506 26 43 6.4 16.1 0.00 0.00 0.00 29 1008.7
20260506004556 27 41 9.7 19.3 0.00 0.43 0.00 31 1008.6
20260506003054 27 347 8.0 14.5 0.00 0.43 0.00 30 1008.6
20260506001552 27 43 8.0 17.7 0.00 0.43 0.00 29 1008.6
20260506000048 27 29 8.0 16.1 0.00 0.43 0.00 30 1008.7
20260505234538 27 9 3.2 14.5 0.00 0.43 0.00 32 1008.7
20260505233035 27 123 4.8 9.7 0.00 0.43 0.00 29 1008.8
20260505231545 27 98 4.8 12.9 0.00 0.43 0.00 28 1008.9
20260505230027 27 11 3.2 14.5 0.00 0.43 0.00 28 1008.9
20260505224520 27 84 8.0 16.1 0.00 0.43 0.00 27 1009.0
20260505223015 26 91 11.3 22.5 0.00 0.43 0.00 27 1009.2
20260505221512 26 37 11.3 17.7 0.00 0.43 0.00 31 1009.3
20260505220107 26 59 9.7 19.3 0.00 0.43 0.00 33 1009.4
20260505214502 26 77 6.4 16.1 0.00 0.43 0.00 32 1009.5
20260505213058 26 65 8.0 19.3 0.00 0.43 0.00 33 1009.6
20260505211554 26 19 12.9 20.9 0.00 0.43 0.00 34 1009.7
20260505210050 25 35 9.7 22.5 0.00 0.43 0.00 36 1009.7
20260505204544 25 13 4.8 12.9 0.00 0.43 0.00 36 1009.8
20260505203056 25 18 3.2 19.3 0.00 0.43 0.00 40 1009.9
20260505201542 24 138 1.6 16.1 0.00 0.43 0.00 38 1010.0
20260505200032 24 138 6.4 11.3 0.00 0.43 0.00 39 1010.0
20260505194526 23 307 3.2 14.5 0.00 0.43 0.00 41 1010.1
20260505193030 23 153 3.2 9.7 0.00 0.43 0.00 40 1010.2
20260505191518 23 123 3.2 16.1 0.00 0.43 0.00 43 1010.3
20260505190017 22 6 0.0 16.1 0.00 0.43 0.00 46 1010.5
20260505184509 22 80 6.4 14.5 0.00 0.43 0.00 44 1010.5
20260505183011 22 332 6.4 14.5 0.00 0.43 0.00 44 1010.5
20260505181600 21 31 4.8 12.9 0.00 0.43 0.00 46 1010.5
20260505174550 21 319 1.6 6.4 0.00 0.43 0.00 46 1010.3
20260505173051 21 293 3.2 9.7 0.00 0.43 0.00 48 1010.3
20260505171546 20 326 0.0 8.0 0.00 0.43 0.00 48 1010.3
20260505170100 20 315 0.0 8.0 0.00 0.43 0.00 51 1010.2
20260505164533 19 281 6.4 12.9 0.00 0.43 0.00 52 1010.2
20260505163033 19 302 3.2 11.3 0.00 0.43 0.00 55 1010.2
20260505161524 18 315 8.0 12.9 0.00 0.43 0.00 57 1010.2
20260505153010 17 282 8.0 14.5 0.00 0.43 0.00 62 1010.3
20260505151505 16 288 8.0 16.1 0.00 0.43 0.00 64 1010.2
20260505124521 -17 0.0 0.0 0.00 0.43 0.00 1009.1
20260505123016 -17 0.0 0.0 0.00 0.43 0.00 1008.9
20260505121515 -67 266 3.2 4.8 0.00 0.43 0.00 80 1008.8
20260505120007 12 275 3.2 8.0 0.00 0.43 0.00 78 1008.7
20260505114508 13 273 6.4 11.3 0.00 0.43 0.00 77 1008.6
20260505113015 13 261 6.4 11.3 0.00 0.43 0.00 77 1008.5
20260505111504 13 283 6.4 12.9 0.00 0.43 0.00 77 1008.5
20260505101558 13 281 3.2 6.4 0.00 0.43 0.00 80 1008.4
20260505100059 13 283 4.8 9.7 0.00 0.43 0.00 79 1008.3
20260505094555 13 288 6.4 9.7 0.00 0.43 0.00 78 1008.2
20260505093051 13 267 4.8 9.7 0.00 0.43 0.00 78 1008.2
20260505091550 13 290 4.8 9.7 0.00 0.43 0.00 79 1008.1
20260505090101 13 253 4.8 9.7 0.00 0.43 0.00 79 1008.1
20260505084551 13 278 3.2 8.0 0.00 0.43 0.00 78 1008.1
20260505083054 13 275 1.6 4.8 0.00 0.43 0.00 77 1008.1
20260505081545 14 275 3.2 8.0 0.00 0.43 0.00 76 1008.0
20260505080041 15 282 3.2 8.0 0.00 0.43 0.00 74 1007.9
20260505074536 15 281 6.4 14.5 0.00 0.43 0.00 73 1007.7
20260505073039 15 273 6.4 11.3 0.00 0.43 0.00 73 1007.7
20260505071532 15 271 8.0 14.5 0.00 0.43 0.00 71 1007.7
20260505070029 15 259 8.0 14.5 0.00 0.43 0.43 70 1007.5
20260505064528 15 288 8.0 12.9 0.00 0.43 0.43 70 1007.5
20260505063029 15 275 9.7 16.1 0.00 0.43 0.43 69 1007.4
20260505061530 15 286 6.4 12.9 0.00 0.43 0.43 67 1007.5
20260505060033 16 284 8.0 16.1 0.00 0.43 0.43 67 1007.4
20260505054535 16 271 4.8 16.1 0.00 0.43 0.43 64 1007.3
20260505053027 16 274 9.7 16.1 0.00 0.43 0.43 62 1007.1
20260505051524 16 276 9.7 19.3 0.00 0.43 0.43 61 1007.1